星链-34405 (STARLINK-34405)

导读

STARLINK-34405是美国于2025年6月28日发射的星链卫星,星链计划是太空探索技术公司(SpaceX)推出的低轨卫星互联网项目,旨在构建覆盖全球的卫星互联网星座,该卫星将和其他星链卫星协同,为全球用户提供高速低延迟的互联网接入服务。

Basic Information
目录编号:
64704
目录名称:
STARLINK-34405
国际标识:
2025-142J
轨道中心:
EARTH
卫星名称:
星链-34405
卫星全名:
星链-34405 (STARLINK-34405)
卫星状态:
在轨 (已飞行433 天)
发射日期:
2025-06-28 UTC
国别 :
美国 (US)
星等 :
--
Orbit Information
数据来源 国际轨道数据 AOE轨道数据
星历时间 2026-09-04T14:00:02+0800
10小时前
查看轨道信息
2026-08-30T07:00:00+0800
5天前
查看轨道信息
半长轴 6899.345km 6950.187km
偏心率 0.0003021 0.0003387
轨道倾角 70.000° 69.998°
近地点辐角 274.143° 264.704°
升交点赤经 224.055° 237.514°
平近点角 29.370° 195.429°
近地点 519.123km 569.695km
远地点 523.293km 574.405km
周期 95.054分钟 96.107分钟
每日圈数 15.149246 14.98332
Detailed Information
固有亮度:
5
最大亮度:
2.5
卫星平台:
Starlink V1.0
覆盖范围:
全球
运营商:
太空探索技术公司
运营商所在国:
美国
制造商(研发单位):
太空探索技术公司
制造商所在国:
美国
使用方式:
暂无
Satellite Introduction
Starlink 计划是 SpaceX 推出的全球卫星互联网项目,通过发射低轨道卫星,为全球尤其是偏远地区提供高速、低延迟的互联网服务。自 2019 年起,Starlink 已部署数千颗卫星,旨在缩小全球数字鸿沟,推动互联网普及。该项目还为军事、航空等行业提供通信支持,带来广泛经济效益。
2D Orbit Map
3D Orbit Map
Orbit Altitude Analysis Chart
Orbit Inclination Analysis Chart
Orbit Comprehensive Analysis Chart
View Comprehensive Chart
Conjunction Data List
Event ID Objects TCA Miss Dist (km) Collision Risk Probability Collision Risk Index (CRI) Action
CDM_260906-140606-191606-470421
2026-09-06T
14:06:52+0000
1.025 km
极远距离
2.077557E-5 中风险 0.61
CDM_260903-041104-435106-470423
2026-09-03T
04:11:36+0000
1.483 km
极远距离
5.304902E-6 低风险 0.49
CDM_260907-060106-470406-575121
2026-09-07T
06:01:59+0000
1.272 km
极远距离
3.530102E-6 低风险 0.46
CDM_260906-203905-314506-470421
2026-09-06T
20:39:48+0000
2.062 km
极远距离
2.427869E-6 低风险 0.43
CDM_260906-154206-470406-647721
2026-09-06T
15:42:21+0000
2.608 km
极远距离
1.435172E-6 低风险 0.38
CDM_260906-130705-619206-470421
2026-09-06T
13:07:45+0000
2.526 km
极远距离
1.377214E-6 低风险 0.38
CDM_260906-204605-386406-470421
2026-09-06T
20:46:19+0000
2.124 km
极远距离
1.214555E-6 低风险 0.37
CDM_260906-131905-641106-470421
2026-09-06T
13:19:50+0000
2.159 km
极远距离
1.177847E-6 低风险 0.36